Location: Peterborough
(44.3091°N, 78.3197°W)
Time: 09:32:28
(UTC-04:00)

A-11 Canister half - Pass Details

Date: 19 September 2024
Orbit: 1515 x 1684 km, 47.2° (Epoch: 02 October)

Event Time Altitude Azimuth Distance (km) Brightness Sun altitude
Rises 20:52:04 0° 266° (W) 4,728 12.8 -17.8°
Reaches altitude 10° 20:55:10 10° 268° (W) 3,726 12.0 -18.3°
Maximum altitude 21:04:34 76° 354° (N) 1,564 9.0 -19.9°
Enters shadow 21:11:05 22° 77° (ENE) 2,820 9.9 -21.0°
